TimeCDT,TemperatureF,Dew PointF,Humidity,Sea Level PressureIn,VisibilityMPH,Wind Direction,Wind SpeedMPH,Gust SpeedMPH,PrecipitationIn,Events,Conditions,WindDirDegrees,DateUTC
12:53 AM,45.0,36.0,71,30.06,10.0,North,3.5,-,N/A,,Overcast,10,2011-11-02 05:53:00
1:53 AM,44.1,34.0,68,30.06,10.0,Variable,4.6,-,N/A,,Overcast,0,2011-11-02 06:53:00
2:53 AM,43.0,35.1,74,30.08,10.0,Variable,4.6,-,N/A,,Overcast,0,2011-11-02 07:53:00
3:53 AM,43.0,35.1,74,30.10,10.0,Calm,Calm,-,N/A,,Overcast,0,2011-11-02 08:53:00
4:53 AM,41.0,36.0,82,30.11,10.0,Calm,Calm,-,N/A,,Overcast,0,2011-11-02 09:53:00
5:53 AM,41.0,36.0,82,30.14,10.0,Calm,Calm,-,N/A,,Overcast,0,2011-11-02 10:53:00
6:53 AM,37.9,36.0,93,30.14,10.0,Calm,Calm,-,N/A,,Overcast,0,2011-11-02 11:53:00
7:53 AM,37.9,36.0,93,30.17,10.0,Calm,Calm,-,N/A,,Overcast,0,2011-11-02 12:53:00
8:53 AM,39.9,35.1,83,30.17,10.0,Calm,Calm,-,N/A,,Overcast,0,2011-11-02 13:53:00
9:53 AM,41.0,35.1,79,30.18,10.0,NW,3.5,-,N/A,,Overcast,310,2011-11-02 14:53:00
10:53 AM,42.1,35.1,76,30.19,10.0,Calm,Calm,-,N/A,,Overcast,0,2011-11-02 15:53:00
12:53 PM,46.9,34.0,61,30.17,10.0,Variable,4.6,-,N/A,,Mostly Cloudy,0,2011-11-02 17:53:00
1:53 PM,50.0,34.0,54,30.15,10.0,Variable,5.8,-,N/A,,Clear,0,2011-11-02 18:53:00
2:53 PM,48.9,30.9,50,30.15,10.0,Variable,5.8,-,N/A,,Mostly Cloudy,0,2011-11-02 19:53:00
3:53 PM,48.0,30.0,50,30.17,10.0,Calm,Calm,-,N/A,,Partly Cloudy,0,2011-11-02 20:53:00
4:53 PM,46.9,30.0,52,30.18,10.0,North,3.5,-,N/A,,Clear,350,2011-11-02 21:53:00
5:53 PM,44.1,30.0,58,30.19,10.0,Variable,3.5,-,N/A,,Clear,0,2011-11-02 22:53:00
6:53 PM,39.0,30.9,73,30.22,10.0,Calm,Calm,-,N/A,,Clear,0,2011-11-02 23:53:00
7:53 PM,36.0,30.9,82,30.24,10.0,Calm,Calm,-,N/A,,Clear,0,2011-11-03 00:53:00
8:53 PM,32.0,28.9,88,30.26,10.0,Calm,Calm,-,N/A,,Clear,0,2011-11-03 01:53:00
9:53 PM,28.9,26.1,89,30.26,10.0,Calm,Calm,-,N/A,,Clear,0,2011-11-03 02:53:00
10:53 PM,27.0,25.0,92,30.25,10.0,Calm,Calm,-,N/A,,Clear,0,2011-11-03 03:53:00
11:53 PM,26.1,24.1,92,30.26,9.0,Calm,Calm,-,N/A,,Clear,0,2011-11-03 04:53:00